DB0LC-2 Weather Reports


Display with metric or nautical units.
time (UTC)temp
F
wind
direction
speed
MPH
gust
MPH
rain 1hr
in
rain 24hr
in
rain mn
in
humidity
%
barometer
mb
20260903075602 68 0 0.0 0.0 0.00 0.00 0.00 55 920.4
20260903074537 68 0 0.0 0.0 0.00 0.00 0.00 59 920.5
20260903073530 68 0 0.0 0.0 0.00 0.00 0.00 59 920.5
20260903073528 68 0 0.0 0.0 0.00 0.00 0.00 59 920.5
20260903072500 68 0 0.0 0.0 0.00 0.00 0.00 55 920.4
20260903070352 68 0 0.0 0.0 0.00 0.00 0.00 59 920.8
20260903070350 68 0 0.0 0.0 0.00 0.00 0.00 59 920.9
20260903065313 69 0 0.0 0.0 0.00 0.00 0.00 58 920.8
20260903064220 68 0 0.0 0.0 0.00 0.00 0.00 59 920.7
20260903063139 67 0 0.0 0.0 0.00 0.00 0.00 58 920.6
20260903063136 67 0 0.0 0.0 0.00 0.00 0.00 58 920.6
20260903062109 68 0 0.0 0.0 0.00 0.00 0.00 59 920.3
20260903061044 68 0 0.0 0.0 0.00 0.00 0.00 59 920.3
20260903060017 67 0 0.0 0.0 0.00 0.00 0.00 58 920.2
20260903053927 68 0 0.0 0.0 0.00 0.00 0.00 59 920.0
20260903052916 68 0 0.0 0.0 0.00 0.00 0.00 57 920.1
20260903051901 68 0 0.0 0.0 0.00 0.00 0.00 59 920.0
20260903050902 68 0 0.0 0.0 0.00 0.00 0.00 60 920.1
20260903045819 68 0 0.0 0.0 0.00 0.00 0.00 56 920.0
20260903043733 68 0 0.0 0.0 0.00 0.00 0.00 60 919.7
20260903042727 68 0 0.0 0.0 0.00 0.00 0.00 56 919.7
20260903041711 68 0 0.0 0.0 0.00 0.00 0.00 59 919.7
20260903040658 68 0 0.0 0.0 0.00 0.00 0.00 59 919.6
20260903035638 68 0 0.0 0.0 0.00 0.00 0.00 54 919.6
20260903034556 68 0 0.0 0.0 0.00 0.00 0.00 59 919.6
20260903033534 67 0 0.0 0.0 0.00 0.00 0.00 59 919.8
20260903032446 68 0 0.0 0.0 0.00 0.00 0.00 56 919.6
20260903032443 68 0 0.0 0.0 0.00 0.00 0.00 56 919.7
20260903031405 68 0 0.0 0.0 0.00 0.00 0.00 59 919.7
20260903030328 67 0 0.0 0.0 0.00 0.00 0.00 58 919.8
20260903025306 68 0 0.0 0.0 0.00 0.00 0.00 59 919.6
20260903024203 68 0 0.0 0.0 0.00 0.00 0.00 59 919.7
20260903022149 68 0 0.0 0.0 0.00 0.00 0.00 59 919.8
20260903021101 67 0 0.0 0.0 0.00 0.00 0.00 59 919.8
20260903020013 68 0 0.0 0.0 0.00 0.00 0.00 58 919.7
20260903014939 68 0 0.0 0.0 0.00 0.00 0.00 59 919.8
20260903013934 67 0 0.0 0.0 0.00 0.00 0.00 58 919.7
20260903012909 68 0 0.0 0.0 0.00 0.00 0.00 59 919.9
20260903011910 68 0 0.0 0.0 0.00 0.00 0.00 59 919.8
20260903010857 68 0 0.0 0.0 0.00 0.00 0.00 56 919.8
20260903005833 68 0 0.0 0.0 0.00 0.00 0.00 59 919.7
20260903004820 68 0 0.0 0.0 0.00 0.00 0.00 59 919.8
20260903001736 68 0 0.0 0.0 0.00 0.00 0.00 59 919.7
20260903000655 68 0 0.0 0.0 0.00 0.00 0.00 58 919.6
20260902235629 68 0 0.0 0.0 0.00 0.00 0.00 59 919.7
20260902234619 68 0 0.0 0.0 0.00 0.00 0.00 58 919.7
20260902232518 68 0 0.0 0.0 0.00 0.00 0.00 59 919.8
20260902231505 68 0 0.0 0.0 0.00 0.00 0.00 55 919.8
20260902230438 68 0 0.0 0.0 0.00 0.00 0.00 59 919.8
20260902225425 68 0 0.0 0.0 0.00 0.00 0.00 59 919.9
20260902224403 68 0 0.0 0.0 0.00 0.00 0.00 57 919.8
20260902224401 68 0 0.0 0.0 0.00 0.00 0.00 57 919.9
20260902223322 68 0 0.0 0.0 0.00 0.00 0.00 59 920.0
20260902221238 68 0 0.0 0.0 0.00 0.00 0.00 59 919.8
20260902221236 68 0 0.0 0.0 0.00 0.00 0.00 59 919.8
20260902220213 68 0 0.0 0.0 0.00 0.00 0.00 59 919.8
20260902215131 68 0 0.0 0.0 0.00 0.00 0.00 57 919.7
20260902214056 68 0 0.0 0.0 0.00 0.00 0.00 59 919.7
20260902213017 68 0 0.0 0.0 0.00 0.00 0.00 57 919.6
20260902212005 68 0 0.0 0.0 0.00 0.00 0.00 59 919.6
20260902210942 68 0 0.0 0.0 0.00 0.00 0.00 59 919.6
20260902205918 68 0 0.0 0.0 0.00 0.00 0.00 57 919.5
20260902203841 68 0 0.0 0.0 0.00 0.00 0.00 57 919.4
20260902203839 68 0 0.0 0.0 0.00 0.00 0.00 57 919.5
20260902200702 68 0 0.0 0.0 0.00 0.00 0.00 56 919.3
20260902195600 68 0 0.0 0.0 0.00 0.00 0.00 59 919.4
20260902193536 68 0 0.0 0.0 0.00 0.00 0.00 60 919.2
20260902192444 67 0 0.0 0.0 0.00 0.00 0.00 59 919.2
20260902191411 68 0 0.0 0.0 0.00 0.00 0.00 58 919.2
20260902190346 68 0 0.0 0.0 0.00 0.00 0.00 57 919.3
20260902185332 68 0 0.0 0.0 0.00 0.00 0.00 59 919.1
20260902184307 68 0 0.0 0.0 0.00 0.00 0.00 58 919.1
20260902183244 68 0 0.0 0.0 0.00 0.00 0.00 59 918.9
20260902181153 68 0 0.0 0.0 0.00 0.00 0.00 56 918.9
20260902180141 68 0 0.0 0.0 0.00 0.00 0.00 59 918.8
20260902175120 68 0 0.0 0.0 0.00 0.00 0.00 58 918.6
20260902174051 68 0 0.0 0.0 0.00 0.00 0.00 60 918.6
20260902173038 68 0 0.0 0.0 0.00 0.00 0.00 59 918.5
20260902172038 68 0 0.0 0.0 0.00 0.00 0.00 56 918.6
20260902171002 68 0 0.0 0.0 0.00 0.00 0.00 60 918.4
20260902165933 68 0 0.0 0.0 0.00 0.00 0.00 57 918.4
20260902164854 68 0 0.0 0.0 0.00 0.00 0.00 59 918.4
20260902163828 68 0 0.0 0.0 0.00 0.00 0.00 58 918.4
20260902162805 68 0 0.0 0.0 0.00 0.00 0.00 59 918.4
20260902161717 68 0 0.0 0.0 0.00 0.00 0.00 59 918.3
20260902160702 68 0 0.0 0.0 0.00 0.00 0.00 57 918.3
20260902155615 68 0 0.0 0.0 0.00 0.00 0.00 59 918.2
20260902154600 68 0 0.0 0.0 0.00 0.00 0.00 58 918.2
20260902153536 69 0 0.0 0.0 0.00 0.00 0.00 59 918.2
20260902152511 68 0 0.0 0.0 0.00 0.00 0.00 59 918.3
20260902151511 68 0 0.0 0.0 0.00 0.00 0.00 56 918.2
20260902150444 68 0 0.0 0.0 0.00 0.00 0.00 59 918.2
20260902145433 68 0 0.0 0.0 0.00 0.00 0.00 57 918.3
20260902144419 69 0 0.0 0.0 0.00 0.00 0.00 59 918.3
20260902143343 68 0 0.0 0.0 0.00 0.00 0.00 59 918.4
20260902142319 68 0 0.0 0.0 0.00 0.00 0.00 56 918.2
20260902141254 68 0 0.0 0.0 0.00 0.00 0.00 59 918.2
20260902140230 68 0 0.0 0.0 0.00 0.00 0.00 56 918.3
20260902135230 68 0 0.0 0.0 0.00 0.00 0.00 59 918.4
20260902135228 68 0 0.0 0.0 0.00 0.00 0.00 59 918.3
20260902134141 68 0 0.0 0.0 0.00 0.00 0.00 58 918.3
20260902132029 68 0 0.0 0.0 0.00 0.00 0.00 59 918.5
20260902130949 68 0 0.0 0.0 0.00 0.00 0.00 56 918.4
20260902125927 68 0 0.0 0.0 0.00 0.00 0.00 59 918.5
20260902124902 68 0 0.0 0.0 0.00 0.00 0.00 57 918.5
20260902124900 68 0 0.0 0.0 0.00 0.00 0.00 57 918.4
20260902123823 68 0 0.0 0.0 0.00 0.00 0.00 59 918.6
20260902121700 68 0 0.0 0.0 0.00 0.00 0.00 59 918.7
20260902115555 69 0 0.0 0.0 0.00 0.00 0.00 58 918.9
20260902114522 68 0 0.0 0.0 0.00 0.00 0.00 59 918.9
20260902113509 68 0 0.0 0.0 0.00 0.00 0.00 57 919.0
20260902111440 68 0 0.0 0.0 0.00 0.00 0.00 59 919.0
20260902110440 68 0 0.0 0.0 0.00 0.00 0.00 55 919.1
20260902104342 68 0 0.0 0.0 0.00 0.00 0.00 58 919.2
20260902103302 69 0 0.0 0.0 0.00 0.00 0.00 60 919.1
20260902102237 68 0 0.0 0.0 0.00 0.00 0.00 59 919.3
20260902101213 68 0 0.0 0.0 0.00 0.00 0.00 56 919.3
20260902100118 68 0 0.0 0.0 0.00 0.00 0.00 60 919.1
20260902095046 68 0 0.0 0.0 0.00 0.00 0.00 59 919.2
20260902094023 68 0 0.0 0.0 0.00 0.00 0.00 57 919.1
20260902092957 68 0 0.0 0.0 0.00 0.00 0.00 60 919.1
20260902091920 68 0 0.0 0.0 0.00 0.00 0.00 59 918.9
20260902090845 68 0 0.0 0.0 0.00 0.00 0.00 59 919.0
20260902085806 68 0 0.0 0.0 0.00 0.00 0.00 60 918.9
20260902084743 68 0 0.0 0.0 0.00 0.00 0.00 57 918.9
20260902083719 68 0 0.0 0.0 0.00 0.00 0.00 59 919.0
20260902083716 68 0 0.0 0.0 0.00 0.00 0.00 59 919.0
20260902082649 68 0 0.0 0.0 0.00 0.00 0.00 59 918.8
20260902081636 68 0 0.0 0.0 0.00 0.00 0.00 56 919.1
20260902080651 68 0 0.0 0.0 0.00 0.00 0.00 59 918.8